Terminal Aerodrome Forecast
Issued by NWS

Home | Current Version | Previous Version | Text Only | Print | Product List | Glossary On
Versions: 1 2 3 4 5 6 7 8 9 10 11 12 13 14 15 16 17 18 19 20 21 22 23 24 25 26 27 28 29 30 31 32 33 34 35 36 37 38 39 40 41 42 43 44 45 46 47 48 49 50
000
FTUS43 KLOT 211723
TAFORD
TAF
KORD 211723Z 2118/2224 34012KT P6SM BKN015 OVC025
     FM212000 30010KT P6SM BKN030
     FM212300 27007KT P6SM SCT025
     FM220500 32011KT P6SM BKN020
     FM221300 35014G23KT P6SM BKN025
     FM221700 35013G20KT P6SM BKN030=

USA.gov is the U.S. government's official web portal to all federal, state and local government web resources and services.